Location: Newark
(36.0797°N, 3.9744°E)
Time: 19:05:23
(UTC+00:00)

Tiros 1 - Visible Passes

Search period start: 08 December 2019 00:00
Search period end: 18 December 2019 00:00
Orbit: 630 x 664 km, 48.4° (Epoch: 07 December)

Date Brightness Start Highest point End Pass type
(mag) Time Alt. Az. Time Alt. Az. Time Alt. Az.
08 Dec 9.7 04:50:39 10° S 04:54:04 20° SE 04:57:27 10° E visible
09 Dec 8.1 05:15:19 10° SSW 05:19:51 47° SE 05:24:21 10° ENE visible
10 Dec 9.6 04:02:04 14° SSE 04:04:04 18° SE 04:07:15 10° E visible
10 Dec 7.1 05:41:07 10° WSW 05:45:51 77° NW 05:50:32 10° NE visible
11 Dec 8.2 04:28:34 35° S 04:29:49 43° SE 04:34:17 10° ENE visible
11 Dec 7.7 06:07:38 10° W 06:12:04 39° NNW 06:16:28 10° NE visible
12 Dec 10.3 03:16:54 10° E 03:16:54 10° E 03:17:01 10° E visible
12 Dec 7.0 04:54:38 51° WSW 04:55:48 83° NW 05:00:30 10° NE visible
13 Dec 9.6 03:42:41 19° ENE 03:42:41 19° ENE 03:44:12 10° ENE visible
13 Dec 7.6 05:20:23 31° WNW 05:22:00 41° NNW 05:26:28 10° NE visible
14 Dec 8.8 04:08:13 28° NE 04:08:13 28° NE 04:10:29 10° NE visible
14 Dec 8.3 05:45:55 17° WNW 05:48:25 26° NNW 05:52:21 10° NE visible
15 Dec 8.4 04:33:34 32° NNE 04:33:34 32° NNE 04:36:27 10° NE visible
15 Dec 8.8 06:11:36 10° NW 06:15:01 19° N 06:18:25 10° NE visible
16 Dec 8.4 04:58:49 26° N 04:58:49 26° N 05:02:20 10° NE visible
17 Dec 10.0 03:46:16 11° NE 03:46:16 11° NE 03:46:26 10° NE visible
17 Dec 8.7 05:23:57 19° NNW 05:24:55 20° N 05:28:22 10° NE visible
